SCP
1 1 1 0 0 0 0 0 0 0 0 0 0 0 0 0 0 0 0 0 0 0 0 0 0 0 0 0 0 0 0 0 0 0 0 0 0 0 0 0 0 0 0
1 1 0 0 1 1 1 0 0 0 0 0 0 0 0 0 0 0 0 0 0 0 0 0 0 0 0 0 0 0 0 0 0 0 0 0 0 0 0 0 0 0 0
0 0 0 0 0 0 0 0 0 0 0 0 0 0 0 0 0 0 0 0 0 0 0 0 0 0 0 0 0 0 0 0 0 0 0 0 0 0 0 0 0 0 0
0 0 0 0 0 0 0 0 0 0 0 0 0 0 0 0 0 0 0 0 0 0 0 0 0 0 0 0 0 0 0 0 0 0 0 0 0 0 0 0 0 0 0
0 0 0 0 0 0 0 0 0 0 0 0 0 0 0 0 0 0 0 0 0 0 0 0 0 0 0 0 0 0 0 0 0 0 0 0 0 0 0 0 0 0 0
0 0 0 0 0 0 0 0 0 0 0 0 0 0 0 0 0 0 0 0 0 0 0 0 0 0 0 0 0 0 0 0 0 0 0 0 0 0 0 0 0 0 0
0 0 0 0 0 0 0 0 0 0 0 0 0 0 0 0 0 0 0 0 0 0 0 0 0 0 0 0 0 0 0 0 0 0 0 0 0 0 0 0 0 0 0
0 0 0 1 0 0 0 0 0 0 0 0 0 0 0 0 0 0 0 0 0 0 0 0 0 0 0 0 0 0 0 0 0 0 0 0 0 0 0 0 0 0 0
0 0 0 0 0 0 0 0 0 0 0 0 0 0 0 0 0 0 0 0 0 0 0 0 0 0 0 0 0 0 0 0 0 0 0 0 0 0 0 0 0 0 0
0 0 0 0 0 0 0 0 0 0 0 0 0 0 0 0 0 0 0 0 0 0 0 0 0 0 0 0 0 0 0 0 0 0 0 0 0 0 0 0 0 0 0
0 0 0 0 0 0 0 0 0 0 0 0 0 0 0 0 0 0 0 0 0 0 0 0 0 0 0 0 0 0 0 0 0 0 0 0 0 0 0 0 0 0 0
0 0 0 0 0 0 0 0 0 0 0 0 0 0 0 0 0 0 0 0 0 0 0 0 0 0 0 0 0 0 0 0 0 0 0 0 0 0 0 0 0 0 0
0 0 0 0 0 0 0 0 0 0 0 0 0 0 0 0 0 0 0 0 0 0 0 0 0 0 0 0 0 0 0 0 0 0 0 0 0 0 0 0 0 0 0
0 0 0 0 0 0 0 0 0 0 0 0 0 0 0 0 0 0 0 0 0 0 0 0 0 0 0 0 0 0 0 0 0 0 0 0 0 0 0 0 0 0 0
0 0 0 0 0 0 0 0 0 0 0 0 0 0 0 0 0 0 0 0 0 0 0 0 0 0 0 0 0 0 0 0 0 0 0 0 0 0 0 0 0 0 0
0 0 0 0 0 0 0 0 0 0 0 0 0 0 0 0 0 0 0 0 0 0 0 0 0 0 0 0 0 0 0 0 0 0 0 0 0 0 0 0 0 0 0
0 0 0 0 0 0 0 0 0 0 0 0 0 0 0 0 0 0 0 0 0 0 0 0 0 0 0 0 0 0 0 0 0 0 0 0 0 0 0 0 0 0 0
0 0 0 0 0 0 0 0 0 0 0 0 0 0 0 0 0 0 0 0 0 0 0 0 0 0 0 0 0 0 0 0 0 0 0 0 0 0 0 0 0 0 0
0 0 0 0 0 0 0 0 0 0 0 0 0 0 0 0 0 0 0 0 0 0 0 0 0 0 0 0 0 0 0 0 0 0 0 0 0 0 0 0 0 0 0
0 0 0 0 0 0 0 0 0 0 0 0 0 0 0 0 0 0 0 0 0 0 0 0 0 0 0 0 0 0 0 0 0 0 0 0 0 0 0 0 0 0 0
-0 0 0 0 0 0 0 0 0 0 0 0 0 0 0 0 0 0 0 0 0 0 0 0 0 0 0 0 0 0 0 0 0 0 0 0 0 0 0 0 0 0 0
-0 -0 0 0 0 0 0 0 0 0 0 0 0 0 0 0 0 0 0 0 0 0 0 0 0 0 0 0 0 0 0 0 0 0 0 0 0 0 0 0 0 0 0
-0 -0 -0 0 0 0 0 0 0 0 0 0 0 0 0 0 0 0 0 0 0 0 0 0 0 0 0 0 0 0 0 0 0 0 0 0 0 0 0 0 0 0 0
-0 -0 -0 -0 0 0 0 0 0 0 0 0 0 0 0 0 0 0 0 0 0 0 0 0 0 0 0 0 0 0 0 0 0 0 0 0 0 0 0 0 0 0 0
-0 -0 -0 -0 -0 0 0 0 0 0 0 0 0 0 0 0 0 0 0 0 0 0 0 0 0 0 0 0 0 0 0 0 0 0 0 0 0 0 0 0 0 0 0
-0 -0 -0 -0 -0 -0 0 0 0 0 0 0 0 0 0 0 0 0 0 0 0 0 0 0 0 0 0 0 0 0 0 0 0 0 0 0 0 0 0 0 0 0 0
Wind_Speed_500mb
76 73 72 67 66 66 70 73 72 73 69 61 64 61 59 53 52 49 47 46 41 41 41 40 35 34 32 30 29 27 24 22 21 19 18 18 19 19 19 20 19 21 20
79 83 84 78 71 74 71 77 78 77 68 62 64 68 65 62 55 52 51 51 45 44 44 42 39 37 36 34 32 30 28 26 24 21 20 18 19 19 20 19 19 22 22
79 91 96 90 87 84 80 82 79 78 71 67 72 71 67 63 57 55 53 52 49 48 48 47 44 40 39 36 35 34 33 29 26 24 22 22 21 19 21 19 20 23 27
80 80 88 97 96 88 84 85 83 86 80 74 79 74 75 64 61 59 55 55 54 52 53 51 48 46 45 40 38 38 36 32 29 27 25 23 23 20 22 19 19 23 27
77 80 86 91 93 97 95 92 89 94 86 85 83 83 72 64 64 61 59 59 58 58 58 54 52 52 50 47 41 40 38 36 33 30 27 25 24 22 23 20 20 24 31
74 79 83 91 92 94 98 95 95 91 90 94 83 82 79 70 67 62 59 60 61 62 60 58 56 58 56 52 46 43 41 39 36 33 29 28 25 25 25 22 23 26 30
53 80 85 86 98 98 98 90 102 101 97 98 89 83 79 73 67 65 61 61 64 66 63 62 62 59 63 60 52 49 46 42 39 37 33 30 28 23 30 23 25 30 34
70 57 85 89 96 100 96 98 102 96 94 102 100 84 59 72 75 72 70 68 68 67 67 67 66 64 67 64 59 56 51 47 43 41 36 32 29 26 31 28 27 32 36
77 73 67 89 94 99 101 98 102 102 98 102 109 88 28 30 49 79 80 80 72 73 73 73 71 70 71 66 61 58 56 53 47 44 38 35 31 30 32 31 30 33 39
65 85 77 69 98 101 102 110 112 111 102 108 110 107 88 50 30 26 60 73 78 79 78 77 76 76 74 70 66 62 57 54 50 46 41 39 34 33 36 33 32 35 41
66 76 86 81 87 101 100 106 112 111 111 103 112 109 110 75 73 31 28 46 65 81 81 81 80 77 76 74 71 65 60 56 52 48 44 41 36 34 37 35 32 38 42
75 64 85 86 75 101 100 102 112 111 109 110 112 111 111 108 84 79 46 37 47 59 74 82 82 82 79 77 72 66 62 58 54 51 47 43 37 37 37 38 34 39 42
79 75 66 93 71 98 105 100 107 112 105 111 112 111 104 103 104 92 76 61 41 35 34 60 79 85 80 78 74 68 62 60 56 53 48 46 38 40 37 38 36 40 41
72 75 75 73 82 86 102 98 110 100 95 117 106 115 109 115 101 102 100 93 67 61 50 36 45 73 81 78 71 65 64 63 58 54 51 48 42 41 36 38 38 41 41
66 65 67 74 74 75 83 89 111 89 103 110 109 95 109 105 104 100 104 102 82 46 63 46 40 37 56 70 70 66 67 64 59 57 52 50 45 42 37 36 38 40 41
67 62 61 59 79 81 93 96 96 89 96 107 107 100 106 100 96 103 102 100 78 75 50 48 47 49 40 51 59 63 67 64 61 57 57 47 48 42 38 37 40 40 42
70 63 59 47 51 60 41 82 94 99 89 98 94 93 97 82 91 89 89 96 91 74 57 57 56 53 49 45 48 53 64 63 63 59 51 56 46 42 39 38 40 40 42
70 67 65 49 34 37 30 29 68 102 81 89 86 84 83 79 82 81 86 91 82 79 76 64 60 53 48 48 46 47 56 58 61 57 59 52 46 44 40 40 39 40 41
71 66 69 65 52 45 26 23 34 57 62 66 69 70 67 70 73 78 74 77 73 74 78 73 70 70 74 62 51 51 50 56 60 61 56 52 48 44 41 41 40 40 41
70 70 67 71 65 60 48 30 25 29 35 48 48 47 51 58 63 62 66 67 65 72 89 86 76 74 71 65 67 59 59 60 63 61 54 54 48 44 42 42 41 41 42
69 69 70 67 70 66 68 55 36 16 25 35 41 42 41 41 43 46 53 55 57 61 84 89 84 84 80 78 75 64 61 57 57 55 56 53 48 45 44 42 40 40 41
62 69 72 70 68 69 66 60 41 26 9 19 26 30 31 34 35 38 41 43 50 59 73 89 91 89 92 83 69 58 62 65 59 63 57 56 51 48 45 42 39 40 40
63 59 61 72 68 67 65 61 53 38 15 7 15 21 25 27 30 33 37 42 49 55 59 70 85 90 93 84 65 57 65 63 67 60 57 59 53 50 45 41 41 39 39
64 64 59 53 63 64 62 63 56 49 33 17 11 7 14 19 25 34 37 44 51 56 62 65 69 71 76 68 65 64 69 66 66 63 56 46 48 47 41 42 39 37 39
63 65 63 59 53 52 60 59 61 50 44 33 25 11 5 14 22 29 38 43 48 54 57 63 68 63 64 62 64 66 70 70 65 63 61 52 47 45 42 41 35 39 37
68 65 65 60 53 47 44 52 54 58 46 41 33 23 10 14 23 28 34 39 47 50 53 62 70 68 64 70 71 60 61 71 68 65 64 59 52 42 33 43 39 36 31
Wind_Direction_500mb
241 235 233 232 234 235 232 230 232 233 236 236 244 249 246 248 261 264 267 269 262 250 243 244 245 245 243 239 238 238 238 242 249 259 271 282 289 297 303 304 311 311 310
241 239 237 230 224 232 229 232 236 237 238 238 240 234 244 256 258 261 263 264 256 246 241 242 244 244 243 238 235 235 238 241 247 256 264 274 282 290 297 301 310 309 310
248 246 244 241 236 241 238 236 237 238 237 239 238 241 246 256 255 258 260 259 254 244 240 240 241 240 240 239 234 233 237 241 247 254 263 271 275 285 292 301 310 315 311
255 251 248 246 245 238 236 238 236 237 235 237 241 244 252 249 252 256 257 255 251 243 239 238 238 235 231 238 234 233 236 241 245 251 256 268 274 281 285 291 305 309 306
258 256 253 251 250 246 240 241 233 242 235 234 240 249 247 252 249 252 253 252 248 243 241 237 236 235 235 237 236 235 236 241 246 250 257 263 270 275 282 291 302 306 306
263 256 251 252 252 250 245 240 236 235 236 237 238 242 249 249 247 247 251 252 247 242 239 238 235 234 236 236 236 236 237 241 247 251 255 262 268 276 276 284 299 301 300
255 262 254 249 249 247 245 244 232 231 237 234 234 234 237 237 240 244 247 249 247 244 239 237 238 234 235 237 235 236 239 241 247 251 255 258 265 271 275 280 294 297 300
246 254 257 251 245 248 241 245 232 226 234 234 230 230 228 232 236 239 245 247 249 245 240 238 236 236 237 236 235 235 237 241 244 251 254 260 262 267 270 277 290 296 299
251 251 253 252 248 245 241 243 237 235 242 237 233 230 210 217 237 242 240 246 244 244 242 239 238 236 237 241 238 237 238 239 242 247 253 259 264 267 269 277 285 295 297
267 251 253 259 248 247 241 241 241 240 244 243 230 230 230 237 199 211 236 240 239 238 240 240 238 237 238 239 241 239 238 238 240 244 248 255 261 266 267 276 286 296 297
282 259 257 251 254 243 242 239 243 236 241 242 244 231 230 221 227 218 222 226 232 234 236 237 238 238 239 239 239 239 238 237 238 242 245 250 255 263 266 275 286 293 297
294 283 255 254 261 246 238 236 244 247 244 244 247 235 239 226 219 224 215 227 232 234 235 236 237 238 237 239 240 239 239 237 238 240 244 250 255 259 263 274 284 290 296
308 295 283 253 266 246 249 244 245 247 247 246 241 238 239 238 239 237 229 232 211 222 237 236 238 239 238 238 237 239 237 238 237 239 241 248 254 256 264 274 286 288 297
311 305 293 267 245 255 248 250 243 247 250 248 245 239 240 238 242 244 240 233 233 239 236 247 250 240 238 239 239 238 237 236 237 238 240 248 251 254 262 274 284 289 298
323 309 302 286 261 266 247 248 244 243 248 246 248 246 241 240 243 240 240 241 232 223 221 226 241 246 238 236 237 235 236 234 235 237 239 245 250 252 262 274 281 288 295
337 330 317 291 260 267 247 251 250 249 246 246 247 239 238 239 243 242 242 238 246 243 212 220 241 246 237 233 234 234 233 234 235 236 239 244 246 250 262 273 280 288 293
354 348 342 324 279 272 271 242 251 247 243 249 245 239 239 241 243 244 242 240 240 228 211 211 214 241 239 234 232 233 233 232 232 234 238 241 244 251 262 271 278 287 292
7 360 360 351 322 292 269 240 238 240 237 243 243 241 240 237 240 243 242 240 239 230 210 215 214 225 237 237 235 234 238 234 232 233 236 239 242 251 261 270 278 284 291
5 6 5 6 0 346 326 261 242 251 233 240 241 241 240 239 238 236 242 238 240 231 209 220 218 221 234 235 237 236 237 236 232 232 233 237 240 251 260 269 276 283 290
356 3 5 7 5 1 348 337 258 239 239 227 230 237 239 239 238 238 236 237 236 228 210 219 217 224 234 239 239 235 233 233 228 230 230 235 239 249 259 267 274 283 291
357 357 359 3 7 6 8 347 342 273 236 225 211 215 222 226 230 231 232 229 232 223 214 220 220 230 234 233 231 232 233 235 234 232 230 233 241 249 256 265 272 281 289
351 353 354 358 5 7 4 3 348 337 273 239 211 205 220 223 226 231 230 225 227 228 222 216 220 226 231 231 230 229 237 229 228 230 227 232 238 246 255 262 272 280 290
342 347 348 349 354 360 3 4 4 0 320 298 250 193 209 220 226 233 236 233 229 227 229 229 224 223 233 231 233 235 241 237 236 233 228 233 235 243 251 259 269 278 289
333 337 341 341 342 347 352 359 2 5 12 11 282 190 213 216 225 227 229 233 236 233 229 225 231 231 242 239 239 248 251 241 235 231 230 229 233 238 246 256 265 276 285
325 327 330 332 332 335 339 348 353 358 8 8 13 17 244 231 232 239 239 238 238 237 235 233 231 232 237 230 231 240 240 235 227 230 229 228 231 237 245 250 259 270 278
321 320 319 321 324 323 326 330 341 346 355 360 4 9 348 253 242 241 247 247 247 243 239 235 231 226 221 227 225 231 236 238 227 222 229 227 234 234 239 244 249 260 269
Wind_Speed_850mb
76 73 72 67 66 66 70 73 72 73 69 61 64 61 59 53 52 49 47 46 41 41 41 40 35 34 32 30 29 27 24 22 21 19 18 18 19 19 19 20 19 21 20
79 83 84 78 71 74 71 77 78 77 68 62 64 68 65 62 55 52 51 51 45 44 44 42 39 37 36 34 32 30 28 26 24 21 20 18 19 19 20 19 19 22 22
79 91 96 90 87 84 80 82 79 78 71 67 72 71 67 63 57 55 53 52 49 48 48 47 44 40 39 36 35 34 33 29 26 24 22 22 21 19 21 19 20 23 27
80 80 88 97 96 88 84 85 83 86 80 74 79 74 75 64 61 59 55 55 54 52 53 51 48 46 45 40 38 38 36 32 29 27 25 23 23 20 22 19 19 23 27
77 80 86 91 93 97 95 92 89 94 86 85 83 83 72 64 64 61 59 59 58 58 58 54 52 52 50 47 41 40 38 36 33 30 27 25 24 22 23 20 20 24 31
74 79 83 91 92 94 98 95 95 91 90 94 83 82 79 70 67 62 59 60 61 62 60 58 56 58 56 52 46 43 41 39 36 33 29 28 25 25 25 22 23 26 30
53 80 85 86 98 98 98 90 102 101 97 98 89 83 79 73 67 65 61 61 64 66 63 62 62 59 63 60 52 49 46 42 39 37 33 30 28 23 30 23 25 30 34
70 57 85 89 96 100 96 98 102 96 94 102 100 84 59 72 75 72 70 68 68 67 67 67 66 64 67 64 59 56 51 47 43 41 36 32 29 26 31 28 27 32 36
77 73 67 89 94 99 101 98 102 102 98 102 109 88 28 30 49 79 80 80 72 73 73 73 71 70 71 66 61 58 56 53 47 44 38 35 31 30 32 31 30 33 39
65 85 77 69 98 101 102 110 112 111 102 108 110 107 88 50 30 26 60 73 78 79 78 77 76 76 74 70 66 62 57 54 50 46 41 39 34 33 36 33 32 35 41
66 76 86 81 87 101 100 106 112 111 111 103 112 109 110 75 73 31 28 46 65 81 81 81 80 77 76 74 71 65 60 56 52 48 44 41 36 34 37 35 32 38 42
75 64 85 86 75 101 100 102 112 111 109 110 112 111 111 108 84 79 46 37 47 59 74 82 82 82 79 77 72 66 62 58 54 51 47 43 37 37 37 38 34 39 42
79 75 66 93 71 98 105 100 107 112 105 111 112 111 104 103 104 92 76 61 41 35 34 60 79 85 80 78 74 68 62 60 56 53 48 46 38 40 37 38 36 40 41
72 75 75 73 82 86 102 98 110 100 95 117 106 115 109 115 101 102 100 93 67 61 50 36 45 73 81 78 71 65 64 63 58 54 51 48 42 41 36 38 38 41 41
66 65 67 74 74 75 83 89 111 89 103 110 109 95 109 105 104 100 104 102 82 46 63 46 40 37 56 70 70 66 67 64 59 57 52 50 45 42 37 36 38 40 41
67 62 61 59 79 81 93 96 96 89 96 107 107 100 106 100 96 103 102 100 78 75 50 48 47 49 40 51 59 63 67 64 61 57 57 47 48 42 38 37 40 40 42
70 63 59 47 51 60 41 82 94 99 89 98 94 93 97 82 91 89 89 96 91 74 57 57 56 53 49 45 48 53 64 63 63 59 51 56 46 42 39 38 40 40 42
70 67 65 49 34 37 30 29 68 102 81 89 86 84 83 79 82 81 86 91 82 79 76 64 60 53 48 48 46 47 56 58 61 57 59 52 46 44 40 40 39 40 41
71 66 69 65 52 45 26 23 34 57 62 66 69 70 67 70 73 78 74 77 73 74 78 73 70 70 74 62 51 51 50 56 60 61 56 52 48 44 41 41 40 40 41
70 70 67 71 65 60 48 30 25 29 35 48 48 47 51 58 63 62 66 67 65 72 89 86 76 74 71 65 67 59 59 60 63 61 54 54 48 44 42 42 41 41 42
69 69 70 67 70 66 68 55 36 16 25 35 41 42 41 41 43 46 53 55 57 61 84 89 84 84 80 78 75 64 61 57 57 55 56 53 48 45 44 42 40 40 41
62 69 72 70 68 69 66 60 41 26 9 19 26 30 31 34 35 38 41 43 50 59 73 89 91 89 92 83 69 58 62 65 59 63 57 56 51 48 45 42 39 40 40
63 59 61 72 68 67 65 61 53 38 15 7 15 21 25 27 30 33 37 42 49 55 59 70 85 90 93 84 65 57 65 63 67 60 57 59 53 50 45 41 41 39 39
64 64 59 53 63 64 62 63 56 49 33 17 11 7 14 19 25 34 37 44 51 56 62 65 69 71 76 68 65 64 69 66 66 63 56 46 48 47 41 42 39 37 39
63 65 63 59 53 52 60 59 61 50 44 33 25 11 5 14 22 29 38 43 48 54 57 63 68 63 64 62 64 66 70 70 65 63 61 52 47 45 42 41 35 39 37
68 65 65 60 53 47 44 52 54 58 46 41 33 23 10 14 23 28 34 39 47 50 53 62 70 68 64 70 71 60 61 71 68 65 64 59 52 42 33 43 39 36 31
Wind_Direction_850mb
241 235 233 232 234 235 232 230 232 233 236 236 244 249 246 248 261 264 267 269 262 250 243 244 245 245 243 239 238 238 238 242 249 259 271 282 289 297 303 304 311 311 310
241 239 237 230 224 232 229 232 236 237 238 238 240 234 244 256 258 261 263 264 256 246 241 242 244 244 243 238 235 235 238 241 247 256 264 274 282 290 297 301 310 309 310
248 246 244 241 236 241 238 236 237 238 237 239 238 241 246 256 255 258 260 259 254 244 240 240 241 240 240 239 234 233 237 241 247 254 263 271 275 285 292 301 310 315 311
255 251 248 246 245 238 236 238 236 237 235 237 241 244 252 249 252 256 257 255 251 243 239 238 238 235 231 238 234 233 236 241 245 251 256 268 274 281 285 291 305 309 306
258 256 253 251 250 246 240 241 233 242 235 234 240 249 247 252 249 252 253 252 248 243 241 237 236 235 235 237 236 235 236 241 246 250 257 263 270 275 282 291 302 306 306
263 256 251 252 252 250 245 240 236 235 236 237 238 242 249 249 247 247 251 252 247 242 239 238 235 234 236 236 236 236 237 241 247 251 255 262 268 276 276 284 299 301 300
255 262 254 249 249 247 245 244 232 231 237 234 234 234 237 237 240 244 247 249 247 244 239 237 238 234 235 237 235 236 239 241 247 251 255 258 265 271 275 280 294 297 300
246 254 257 251 245 248 241 245 232 226 234 234 230 230 228 232 236 239 245 247 249 245 240 238 236 236 237 236 235 235 237 241 244 251 254 260 262 267 270 277 290 296 299
251 251 253 252 248 245 241 243 237 235 242 237 233 230 210 217 237 242 240 246 244 244 242 239 238 236 237 241 238 237 238 239 242 247 253 259 264 267 269 277 285 295 297
267 251 253 259 248 247 241 241 241 240 244 243 230 230 230 237 199 211 236 240 239 238 240 240 238 237 238 239 241 239 238 238 240 244 248 255 261 266 267 276 286 296 297
282 259 257 251 254 243 242 239 243 236 241 242 244 231 230 221 227 218 222 226 232 234 236 237 238 238 239 239 239 239 238 237 238 242 245 250 255 263 266 275 286 293 297
294 283 255 254 261 246 238 236 244 247 244 244 247 235 239 226 219 224 215 227 232 234 235 236 237 238 237 239 240 239 239 237 238 240 244 250 255 259 263 274 284 290 296
308 295 283 253 266 246 249 244 245 247 247 246 241 238 239 238 239 237 229 232 211 222 237 236 238 239 238 238 237 239 237 238 237 239 241 248 254 256 264 274 286 288 297
311 305 293 267 245 255 248 250 243 247 250 248 245 239 240 238 242 244 240 233 233 239 236 247 250 240 238 239 239 238 237 236 237 238 240 248 251 254 262 274 284 289 298
323 309 302 286 261 266 247 248 244 243 248 246 248 246 241 240 243 240 240 241 232 223 221 226 241 246 238 236 237 235 236 234 235 237 239 245 250 252 262 274 281 288 295
337 330 317 291 260 267 247 251 250 249 246 246 247 239 238 239 243 242 242 238 246 243 212 220 241 246 237 233 234 234 233 234 235 236 239 244 246 250 262 273 280 288 293
354 348 342 324 279 272 271 242 251 247 243 249 245 239 239 241 243 244 242 240 240 228 211 211 214 241 239 234 232 233 233 232 232 234 238 241 244 251 262 271 278 287 292
7 360 360 351 322 292 269 240 238 240 237 243 243 241 240 237 240 243 242 240 239 230 210 215 214 225 237 237 235 234 238 234 232 233 236 239 242 251 261 270 278 284 291
5 6 5 6 0 346 326 261 242 251 233 240 241 241 240 239 238 236 242 238 240 231 209 220 218 221 234 235 237 236 237 236 232 232 233 237 240 251 260 269 276 283 290
356 3 5 7 5 1 348 337 258 239 239 227 230 237 239 239 238 238 236 237 236 228 210 219 217 224 234 239 239 235 233 233 228 230 230 235 239 249 259 267 274 283 291
357 357 359 3 7 6 8 347 342 273 236 225 211 215 222 226 230 231 232 229 232 223 214 220 220 230 234 233 231 232 233 235 234 232 230 233 241 249 256 265 272 281 289
351 353 354 358 5 7 4 3 348 337 273 239 211 205 220 223 226 231 230 225 227 228 222 216 220 226 231 231 230 229 237 229 228 230 227 232 238 246 255 262 272 280 290
342 347 348 349 354 360 3 4 4 0 320 298 250 193 209 220 226 233 236 233 229 227 229 229 224 223 233 231 233 235 241 237 236 233 228 233 235 243 251 259 269 278 289
333 337 341 341 342 347 352 359 2 5 12 11 282 190 213 216 225 227 229 233 236 233 229 225 231 231 242 239 239 248 251 241 235 231 230 229 233 238 246 256 265 276 285
325 327 330 332 332 335 339 348 353 358 8 8 13 17 244 231 232 239 239 238 238 237 235 233 231 232 237 230 231 240 240 235 227 230 229 228 231 237 245 250 259 270 278
321 320 319 321 324 323 326 330 341 346 355 360 4 9 348 253 242 241 247 247 247 243 239 235 231 226 221 227 225 231 236 238 227 222 229 227 234 234 239 244 249 260 269